Weather History for KLWS - January, 2013

Change the Weather History Date:

Monday, January 7, 2013

  Actual Average Record
Temperature  
Mean Temperature 38 °F 34 °F  
Max Temperature 45 °F 40 °F 65 °F (1945)
Min Temperature 30 °F 29 °F -4 °F (1979)
Degree Days  
Heating Degree Days 27 31  
Month to date heating degree days 230 217  
Since 1 July heating degree days 2032 2425  
Cooling Degree Days 0 0  
Month to date cooling degree days 0 0  
Year to date cooling degree days 0 0  
Moisture  
Dew Point 28 °F    
Average Humidity 67    
Maximum Humidity 82    
Minimum Humidity 52    
Precipitation  
Precipitation 0.05 in 0.04 in 0.60 in (1933)
Month to date precipitation 0.05 0.25  
Year to date precipitation 0.05 0.25  
Snow  
Snow 0.10 in 0.10 in 7.10 in (1909)
Month to date snowfall 0.1 0.7  
Since 1 July snowfall 0.4 6.0  
Snow Depth 0.00 in    
Sea Level Pressure  
Sea Level Pressure 30.00 in    
Wind  
Wind Speed 15 mph (South)    
Max Wind Speed 31 mph    
Max Gust Speed 40 mph    
Visibility 8 miles    
Events Snow    
T = Trace of Precipitation, MM = Missing Value Source: NWS Daily Summary

Daily Weather History Graph

Daily Weather History Graph

Search for Another Location

Airport or City:

Trip Planner

Search our weather history database for the weather conditions in past years. The results will help you decide how hot, cold, wet, or windy it might be!

Date:

Astronomy

Jan. 07, 2013 Rise Set
Actual Time 7:30 AM PST 4:18 PM PST
Civil Twilight 6:56 AM PST 4:53 PM PST
Nautical Twilight 6:18 AM PST 5:30 PM PST
Astronomical Twilight 5:42 AM PST 6:07 PM PST
Moon 2:56 AM PST (1/7) 12:36 PM PST (1/7)
Length of Visible Light 9h 56m
Length of Day
8h 48m
Waning Crescent, 21% of the Moon is Illuminated
Jan 7
Waning Crescent
Jan 11
New
Jan 18
First Quarter
Jan 26
Full
Feb 3
Last Quarter

Hourly Weather History & Observations

Time (PST) Temp. Windchill Dew Point Humidity Pressure Visibility Wind Dir Wind Speed Gust Speed Precip Events Conditions
12:56 AM 34.0 °F 31.0 °F 24.1 °F 67% 30.10 in 10.0 mi East 3.5 mph - N/A   Mostly Cloudy
1:56 AM 35.1 °F - 23.0 °F 61% 30.10 in 10.0 mi Calm Calm - N/A   Overcast
2:56 AM 36.0 °F - 23.0 °F 59% 30.09 in 10.0 mi Calm Calm - N/A   Overcast
3:56 AM 37.0 °F 33.3 °F 21.9 °F 54% 30.08 in 10.0 mi SSE 4.6 mph - N/A   Overcast
4:56 AM 37.0 °F 33.3 °F 21.9 °F 54% 30.06 in 10.0 mi Variable 4.6 mph - N/A   Overcast
5:56 AM 36.0 °F 31.1 °F 24.1 °F 62% 30.05 in 10.0 mi Variable 5.8 mph - N/A   Overcast
6:56 AM 37.9 °F 27.3 °F 25.0 °F 60% 30.02 in 10.0 mi South 21.9 mph 28.8 mph N/A   Overcast
7:56 AM 34.0 °F 23.0 °F 27.0 °F 75% 30.01 in 10.0 mi SE 18.4 mph 26.5 mph N/A   Overcast
8:56 AM 36.0 °F 25.0 °F 28.0 °F 73% 30.02 in 2.0 mi South 20.7 mph - 0.00 in Snow Light Snow
9:05 AM 35.6 °F 26.2 °F 28.4 °F 75% 29.98 in 1.8 mi SSE 15.0 mph 24.2 mph 0.00 in Snow Light Snow
9:16 AM 35.6 °F 26.2 °F 28.4 °F 75% 29.98 in 2.5 mi SSE 15.0 mph 21.9 mph 0.00 in Snow Light Snow
9:35 AM 35.6 °F 24.8 °F 28.4 °F 75% 29.97 in 1.2 mi South 19.6 mph 32.2 mph 0.01 in Snow Light Snow
9:56 AM 35.1 °F 24.1 °F 30.0 °F 82% 30.01 in 1.5 mi South 19.6 mph 28.8 mph 0.01 in Snow Light Snow
10:06 AM 35.6 °F 25.5 °F 30.2 °F 81% 29.98 in 1.2 mi South 17.3 mph - 0.01 in Snow Light Snow
10:19 AM 33.8 °F 23.2 °F 30.2 °F 87% 29.97 in 0.8 mi South 17.3 mph - 0.02 in Snow Light Snow
10:33 AM 35.6 °F 24.5 °F 30.2 °F 81% 29.97 in 1.5 mi South 20.7 mph 28.8 mph N/A Snow Light Snow
10:41 AM 35.6 °F 24.8 °F 28.4 °F 75% 29.97 in 2.0 mi South 19.6 mph 28.8 mph 0.03 in Snow Light Snow
10:56 AM 36.0 °F 24.7 °F 28.9 °F 76% 29.99 in 4.0 mi South 21.9 mph 26.5 mph 0.03 in Snow Light Snow
11:13 AM 37.4 °F 27.5 °F 28.4 °F 70% 29.95 in 10.0 mi South 18.4 mph 28.8 mph 0.01 in   Overcast
11:35 AM 37.4 °F 26.1 °F 28.4 °F 70% 29.92 in 10.0 mi South 24.2 mph 34.5 mph 0.01 in   Overcast
11:56 AM 37.9 °F 27.1 °F 28.0 °F 68% 29.94 in 10.0 mi South 23.0 mph 33.4 mph 0.01 in   Overcast
12:56 PM 39.0 °F 27.6 °F 28.0 °F 65% 29.93 in 10.0 mi South 27.6 mph 40.3 mph N/A   Overcast
1:56 PM 41.0 °F 31.1 °F 30.0 °F 65% 29.94 in 10.0 mi South 23.0 mph 32.2 mph N/A   Mostly Cloudy
2:56 PM 42.1 °F 32.1 °F 30.9 °F 65% 29.95 in 10.0 mi South 25.3 mph 29.9 mph N/A   Partly Cloudy
3:56 PM 43.0 °F 34.5 °F 30.9 °F 62% 29.96 in 10.0 mi South 19.6 mph 28.8 mph N/A   Overcast
4:56 PM 43.0 °F 34.0 °F 30.9 °F 62% 29.96 in 10.0 mi South 21.9 mph 29.9 mph N/A   Clear
5:56 PM 44.1 °F 37.4 °F 32.0 °F 63% 29.98 in 10.0 mi South 13.8 mph 23.0 mph N/A   Clear
6:56 PM 45.0 °F 37.9 °F 32.0 °F 60% 29.97 in 10.0 mi South 16.1 mph 27.6 mph N/A   Clear
7:56 PM 44.1 °F 37.4 °F 32.0 °F 63% 29.98 in 10.0 mi SSE 13.8 mph 20.7 mph N/A   Clear
8:56 PM 44.1 °F 37.7 °F 30.9 °F 60% 29.99 in 10.0 mi South 12.7 mph - N/A   Clear
9:56 PM 44.6 °F 38.8 °F 30.2 °F 57% 29.99 in 10.0 mi South 11.5 mph - N/A   Clear
10:56 PM 44.1 °F 37.4 °F 30.0 °F 58% 30.05 in 10.0 mi South 13.8 mph - N/A   Clear
11:56 PM 44.1 °F 36.5 °F 30.0 °F 58% 30.08 in 10.0 mi SSE 17.3 mph - N/A   Mostly Cloudy